West Bend, WI

6:45 AM CDT on September 26, 2017 (GMT -0500)
West Bend Municipal

Weather History for KETB - January, 2014

Change the Weather History Date:

Saturday, January 11, 2014

  Actual Average Record
Temperature  
Mean Temperature 34 °F -  
Max Temperature 37 °F 24 °F 51 °F (2012)
Min Temperature 30 °F 8 °F -30 °F (1979)
Degree Days  
Heating Degree Days 32    
Moisture  
Dew Point 29 °F    
Average Humidity 86    
Maximum Humidity 100    
Minimum Humidity 75    
Precipitation  
Precipitation 0.00 in - - ()
Sea Level Pressure  
Sea Level Pressure 29.49 in    
Wind  
Wind Speed 10 mph (West)    
Max Wind Speed 18 mph    
Max Gust Speed 25 mph    
Visibility 8 miles    
Events      
Averages and records for this station are not official NWS values.
T = Trace of Precipitation, MM = Missing Value Source: NWS Daily Summary

Daily Weather History Graph

Daily Weather History Graph

Search for Another Location

Airport or City:

Trip Planner

Search our weather history database for the weather conditions in past years. The results will help you decide how hot, cold, wet, or windy it might be!

Date:

Astronomy

Jan. 11, 2014 Rise Set
Actual Time 7:23 AM CST 4:37 PM CST
Civil Twilight 6:51 AM CST 5:09 PM CST
Nautical Twilight 6:16 AM CST 5:44 PM CST
Astronomical Twilight 5:42 AM CST 6:19 PM CST
Moon 1:22 PM CST (1/11) 3:26 AM CST (1/11)
Length of Visible Light 10h 17m
Length of Day
9h 13m
Waxing Gibbous, 83% of the Moon is Illuminated
Jan 11
Waxing Gibbous
Jan 15
Full
Jan 23
Last Quarter
Jan 30
New
Feb 6
First Quarter

Hourly Weather History & Observations

Time (CST) Temp. Windchill Dew Point Humidity Pressure Visibility Wind Dir Wind Speed Gust Speed Precip Events Conditions
12:15 AM 37.4 °F 32.1 °F 35.6 °F 93% 29.43 in 10.0 mi SSW 6.9 mph - N/A   Overcast
12:35 AM 35.6 °F 29.2 °F 35.6 °F 100% 29.42 in 7.0 mi SSW 8.1 mph - N/A   Overcast
12:55 AM 35.6 °F 29.2 °F 33.8 °F 93% 29.41 in 7.0 mi SW 8.1 mph - N/A   Overcast
1:15 AM 35.6 °F 29.9 °F 33.8 °F 93% 29.40 in 5.0 mi SSW 6.9 mph - N/A   Overcast
1:35 AM 35.6 °F 29.9 °F 33.8 °F 93% 29.41 in 3.0 mi SSW 6.9 mph - N/A   Overcast
1:55 AM 35.6 °F 31.7 °F 33.8 °F 93% 29.40 in 2.0 mi WSW 4.6 mph - N/A   Overcast
2:15 AM 35.6 °F 31.7 °F 33.8 °F 93% 29.39 in 1.5 mi WSW 4.6 mph - N/A   Overcast
2:35 AM 35.6 °F 29.9 °F 33.8 °F 93% 29.39 in 1.5 mi SW 6.9 mph - N/A   Overcast
2:55 AM 35.6 °F 30.7 °F 33.8 °F 93% 29.38 in 1.2 mi SW 5.8 mph - N/A   Overcast
3:15 AM 35.6 °F 30.7 °F 33.8 °F 93% 29.38 in 0.8 mi WSW 5.8 mph - N/A   Overcast
3:55 AM 33.8 °F 24.8 °F 33.8 °F 100% 29.38 in 2.0 mi West 12.7 mph 16.1 mph N/A   Overcast
4:15 AM 33.8 °F 27.0 °F 33.8 °F 100% 29.38 in 2.0 mi West 8.1 mph - N/A   Overcast
4:35 AM 33.8 °F 25.3 °F 32.0 °F 93% 29.38 in 2.5 mi West 11.5 mph - N/A   Overcast
4:55 AM 33.8 °F 27.0 °F 32.0 °F 93% 29.37 in 4.0 mi WNW 8.1 mph - N/A   Overcast
5:15 AM 32.0 °F 23.6 °F 32.0 °F 100% 29.38 in 7.0 mi West 10.4 mph 16.1 mph N/A   Overcast
5:35 AM 32.0 °F 24.2 °F 32.0 °F 100% 29.38 in 10.0 mi West 9.2 mph - N/A   Overcast
5:55 AM 32.0 °F 24.2 °F 32.0 °F 100% 29.38 in 10.0 mi West 9.2 mph - N/A   Overcast
6:15 AM 32.0 °F 24.8 °F 30.2 °F 93% 29.38 in 10.0 mi WNW 8.1 mph - N/A   Overcast
6:35 AM 32.0 °F 24.2 °F 30.2 °F 93% 29.38 in 7.0 mi West 9.2 mph - N/A   Overcast
6:55 AM 32.0 °F 23.6 °F 30.2 °F 93% 29.38 in 10.0 mi West 10.4 mph 16.1 mph N/A   Overcast
7:15 AM 32.0 °F 24.8 °F 30.2 °F 93% 29.39 in 10.0 mi West 8.1 mph - N/A   Overcast
7:35 AM 32.0 °F 22.1 °F 30.2 °F 93% 29.39 in 10.0 mi West 13.8 mph 18.4 mph N/A   Overcast
7:55 AM 32.0 °F 22.1 °F 30.2 °F 93% 29.40 in 10.0 mi West 13.8 mph 18.4 mph N/A   Overcast
8:15 AM 32.0 °F 20.8 °F 28.4 °F 87% 29.41 in 10.0 mi West 17.3 mph - N/A   Overcast
8:35 AM 32.0 °F 22.1 °F 28.4 °F 87% 29.41 in 10.0 mi WNW 13.8 mph 17.3 mph N/A   Overcast
8:55 AM 32.0 °F 21.6 °F 28.4 °F 87% 29.42 in 10.0 mi West 15.0 mph 18.4 mph N/A   Overcast
9:15 AM 32.0 °F 22.5 °F 28.4 °F 87% 29.43 in 10.0 mi West 12.7 mph 19.6 mph N/A   Overcast
9:35 AM 32.0 °F 20.8 °F 28.4 °F 87% 29.43 in 10.0 mi West 17.3 mph 21.9 mph N/A   Overcast
10:15 AM 32.0 °F 21.2 °F 28.4 °F 87% 29.43 in 10.0 mi West 16.1 mph 24.2 mph N/A   Overcast
10:35 AM 32.0 °F 21.2 °F 28.4 °F 87% 29.44 in 10.0 mi West 16.1 mph 25.3 mph N/A   Overcast
10:55 AM 30.2 °F 18.1 °F 26.6 °F 86% 29.44 in 10.0 mi West 18.4 mph 24.2 mph N/A   Overcast
11:15 AM 32.0 °F 21.2 °F 26.6 °F 80% 29.43 in 10.0 mi WNW 16.1 mph 21.9 mph N/A   Overcast
11:35 AM 32.0 °F 22.5 °F 26.6 °F 80% 29.43 in 10.0 mi West 12.7 mph 23.0 mph N/A   Overcast
11:55 AM 32.0 °F 22.1 °F 26.6 °F 80% 29.42 in 10.0 mi West 13.8 mph 21.9 mph N/A   Overcast
12:35 PM 32.0 °F 20.8 °F 26.6 °F 80% 29.43 in 10.0 mi West 17.3 mph 23.0 mph N/A   Overcast
12:55 PM 32.0 °F 24.2 °F 26.6 °F 80% 29.43 in 10.0 mi West 9.2 mph 18.4 mph N/A   Overcast
1:15 PM 32.0 °F 22.5 °F 26.6 °F 80% 29.43 in 10.0 mi West 12.7 mph 21.9 mph N/A   Overcast
1:35 PM 32.0 °F 20.5 °F 26.6 °F 80% 29.44 in 10.0 mi West 18.4 mph 25.3 mph N/A   Overcast
1:55 PM 32.0 °F 20.8 °F 26.6 °F 80% 29.44 in 10.0 mi West 17.3 mph 24.2 mph N/A   Overcast
2:15 PM 32.0 °F 20.8 °F 26.6 °F 80% 29.46 in 10.0 mi West 17.3 mph - N/A   Overcast
2:35 PM 32.0 °F 21.6 °F 26.6 °F 80% 29.46 in 7.0 mi West 15.0 mph 20.7 mph N/A   Overcast
2:55 PM 32.0 °F 21.2 °F 26.6 °F 80% 29.48 in 7.0 mi WNW 16.1 mph 21.9 mph N/A   Overcast
3:55 PM 30.2 °F 18.1 °F 26.6 °F 86% 29.52 in 5.0 mi West 18.4 mph 21.9 mph N/A   Overcast
4:15 PM 30.2 °F 19.3 °F 26.6 °F 86% 29.53 in 7.0 mi WNW 15.0 mph 23.0 mph N/A   Overcast
4:35 PM 32.0 °F 20.8 °F 26.6 °F 80% 29.55 in 7.0 mi West 17.3 mph 21.9 mph N/A   Overcast
4:55 PM 32.0 °F 23.0 °F 26.6 °F 80% 29.55 in 10.0 mi WNW 11.5 mph 19.6 mph N/A   Overcast
5:15 PM 32.0 °F 24.2 °F 26.6 °F 80% 29.55 in 10.0 mi WNW 9.2 mph 16.1 mph N/A   Overcast
5:35 PM 32.0 °F 24.2 °F 26.6 °F 80% 29.55 in 10.0 mi WNW 9.2 mph - N/A   Overcast
5:55 PM 32.0 °F 23.0 °F 26.6 °F 80% 29.57 in 10.0 mi West 11.5 mph 18.4 mph N/A   Overcast
6:15 PM 32.0 °F 23.6 °F 26.6 °F 80% 29.58 in 10.0 mi WNW 10.4 mph 18.4 mph N/A   Overcast
6:35 PM 32.0 °F 23.6 °F 26.6 °F 80% 29.59 in 7.0 mi WNW 10.4 mph 17.3 mph N/A   Overcast
6:55 PM 32.0 °F 22.5 °F 26.6 °F 80% 29.59 in 10.0 mi West 12.7 mph 17.3 mph N/A   Overcast
7:15 PM 32.0 °F 23.0 °F 26.6 °F 80% 29.60 in 10.0 mi West 11.5 mph 18.4 mph N/A   Overcast
7:35 PM 32.0 °F 22.5 °F 26.6 °F 80% 29.61 in 10.0 mi West 12.7 mph 23.0 mph N/A   Overcast
7:55 PM 32.0 °F 20.8 °F 26.6 °F 80% 29.62 in 10.0 mi WNW 17.3 mph 21.9 mph N/A   Overcast
8:15 PM 32.0 °F 22.1 °F 26.6 °F 80% 29.63 in 10.0 mi West 13.8 mph 21.9 mph N/A   Overcast
8:35 PM 30.2 °F 19.3 °F 26.6 °F 86% 29.64 in 10.0 mi West 15.0 mph 19.6 mph N/A   Overcast
8:55 PM 30.2 °F 20.2 °F 26.6 °F 86% 29.65 in 10.0 mi West 12.7 mph 18.4 mph N/A   Overcast
9:15 PM 30.2 °F 20.8 °F 26.6 °F 86% 29.65 in 10.0 mi West 11.5 mph 19.6 mph N/A   Overcast
9:35 PM 30.2 °F 21.3 °F 26.6 °F 86% 29.66 in 10.0 mi West 10.4 mph 16.1 mph N/A   Overcast
9:55 PM 30.2 °F 21.9 °F 24.8 °F 80% 29.67 in 10.0 mi West 9.2 mph - N/A   Overcast
10:15 PM 30.2 °F 20.8 °F 24.8 °F 80% 29.67 in 10.0 mi West 11.5 mph - N/A   Overcast
10:35 PM 30.2 °F 18.9 °F 24.8 °F 80% 29.68 in 10.0 mi West 16.1 mph 19.6 mph N/A   Overcast
10:55 PM 30.2 °F 19.8 °F 24.8 °F 80% 29.68 in 10.0 mi West 13.8 mph 17.3 mph N/A   Overcast
11:15 PM 30.2 °F 21.3 °F 24.8 °F 80% 29.69 in 10.0 mi West 10.4 mph 20.7 mph N/A   Overcast
11:35 PM 30.2 °F 21.3 °F 23.0 °F 75% 29.68 in 10.0 mi West 10.4 mph 20.7 mph N/A   Overcast
11:55 PM 30.2 °F 18.5 °F 23.0 °F 75% 29.69 in 10.0 mi West 17.3 mph 23.0 mph N/A   Overcast